Location: Elende
(51.4317°N, 10.6316°E)
Time: 16:08:27
(UTC+00:00)

Exosat Rocket - Pass Details

Date: 18 September 2020
Orbit: 761 x 2514 km, 72.3° (Epoch: 22 October)

Event Time Altitude Azimuth Distance (km) Brightness Sun altitude
Rises 18:59:30 0° 178° (S) 3,648 6.8 -15.3°
Reaches altitude 10° 19:02:24 10° 170° (S) 2,539 5.9 -15.7°
Maximum altitude 19:07:17 33° 107° (ESE) 1,300 4.1 -16.4°
Drops below altitude 10° 19:11:45 10° 43° (NE) 2,305 5.8 -17.0°
Sets 19:14:15 0° 34° (NE) 3,261 6.7 -17.4°
